User: anonymous   Login
Location: Unspecified
(0.0000°N, 0.0000°E)
Time: 06:37:09
(UTC+00:00)
Language:

Aussat K3 - Orbit

View from above orbital plane
View from above orbital plane
View from above satellite
View from above satellite

Ground track
Ground track

The orbit data is extracted from the following two-line orbital elements,

1 18350U 87078A   15213.61273655 -.00000180  00000-0  00000+0 0  9993
2 18350 014.1453 025.3705 0004021 238.7860 089.6644 00.98908715101220
Epoch (UTC): 01 August 2015 14:42:20
Eccentricity: 0.0004021
inclination: 14.1453°
perigee height: 36155 km
apogee height: 36190 km
right ascension of ascending node: 25.3705°
argument of perigee: 238.7860°
revolutions per day: 0.98908715
mean anomaly at epoch: 89.6644°
orbit number at epoch: 10122

The dashed part of the orbit path shows where the satellite is in the earth's shadow,  

DLR